| time (UTC) | temp C | wind direction | speed KPH | gust KPH | rain 1hr cm | rain 24hr cm | rain mn cm | humidity % | barometer mb |
| 20260510110758 | 3 | 265 | 11.3 | 17.7 | 0.00 | 0.00 | 0.00 | 82 | 1011.8 |
| 20260510110525 | 2 | 261 | 9.7 | 16.1 | 0.00 | 0.00 | 0.00 | 82 | 1011.7 |
| 20260510105757 | 2 | 275 | 9.7 | 16.1 | 0.00 | 0.00 | 0.00 | 82 | 1011.6 |
| 20260510104757 | 2 | 247 | 8.0 | 11.3 | 0.00 | 0.00 | 0.00 | 82 | 1011.4 |
| 20260510104301 | 2 | 271 | 8.0 | 11.3 | 0.00 | 0.00 | 0.00 | 82 | 1011.4 |
| 20260510103757 | 2 | 271 | 8.0 | 11.3 | 0.00 | 0.00 | 0.00 | 81 | 1011.3 |
| 20260510103257 | 2 | 285 | 9.7 | 11.3 | 0.00 | 0.00 | 0.00 | 81 | 1011.2 |
| 20260510102758 | 2 | 283 | 8.0 | 11.3 | 0.00 | 0.00 | 0.00 | 81 | 1011.1 |
| 20260510102256 | 2 | 279 | 6.4 | 11.3 | 0.00 | 0.00 | 0.00 | 81 | 1011.0 |
| 20260510101255 | 2 | 274 | 6.4 | 16.1 | 0.00 | 0.00 | 0.00 | 81 | 1010.9 |
| 20260510100756 | 2 | 281 | 8.0 | 14.5 | 0.00 | 0.00 | 0.00 | 81 | 1010.9 |
| 20260510100522 | 2 | 286 | 6.4 | 14.5 | 0.00 | 0.00 | 0.00 | 80 | 1010.8 |
| 20260510095756 | 2 | 226 | 6.4 | 16.1 | 0.00 | 0.00 | 0.00 | 80 | 1010.7 |
| 20260510095256 | 2 | 271 | 9.7 | 16.1 | 0.00 | 0.00 | 0.00 | 80 | 1010.7 |
| 20260510094755 | 2 | 278 | 8.0 | 14.5 | 0.00 | 0.00 | 0.00 | 80 | 1010.6 |
| 20260510094255 | 2 | 271 | 8.0 | 14.5 | 0.00 | 0.00 | 0.00 | 80 | 1010.5 |
| 20260510094041 | 2 | 283 | 8.0 | 14.5 | 0.00 | 0.00 | 0.00 | 79 | 1010.5 |
| 20260510093254 | 2 | 259 | 6.4 | 19.3 | 0.00 | 0.00 | 0.00 | 79 | 1010.4 |
| 20260510092754 | 2 | 264 | 6.4 | 19.3 | 0.00 | 0.00 | 0.00 | 80 | 1010.4 |
| 20260510092521 | 2 | 292 | 9.7 | 20.9 | 0.00 | 0.00 | 0.00 | 79 | 1010.4 |
| 20260510091754 | 2 | 272 | 9.7 | 20.9 | 0.00 | 0.00 | 0.00 | 79 | 1010.3 |
| 20260510091254 | 2 | 272 | 8.0 | 16.1 | 0.00 | 0.00 | 0.00 | 79 | 1010.2 |
| 20260510090753 | 2 | 293 | 8.0 | 16.1 | 0.00 | 0.00 | 0.00 | 79 | 1010.1 |
| 20260510090252 | 2 | 274 | 8.0 | 16.1 | 0.00 | 0.00 | 0.00 | 78 | 1010.1 |
| 20260510085752 | 2 | 262 | 9.7 | 19.3 | 0.00 | 0.00 | 0.00 | 78 | 1010.0 |
| 20260510085252 | 2 | 281 | 9.7 | 19.3 | 0.00 | 0.00 | 0.00 | 78 | 1009.9 |
| 20260510084751 | 2 | 288 | 9.7 | 17.7 | 0.00 | 0.00 | 0.00 | 78 | 1009.9 |
| 20260510084251 | 2 | 275 | 9.7 | 14.5 | 0.00 | 0.00 | 0.00 | 77 | 1009.8 |
| 20260510083751 | 2 | 237 | 8.0 | 14.5 | 0.00 | 0.00 | 0.00 | 77 | 1009.6 |
| 20260510083524 | 2 | 258 | 6.4 | 17.7 | 0.00 | 0.00 | 0.00 | 77 | 1009.5 |
| 20260510082751 | 2 | 255 | 9.7 | 17.7 | 0.00 | 0.00 | 0.00 | 77 | 1009.5 |
| 20260510082251 | 3 | 267 | 9.7 | 16.1 | 0.00 | 0.00 | 0.00 | 77 | 1009.4 |
| 20260510081751 | 3 | 255 | 11.3 | 17.7 | 0.00 | 0.00 | 0.00 | 77 | 1009.4 |
| 20260510081250 | 3 | 264 | 11.3 | 17.7 | 0.00 | 0.00 | 0.00 | 77 | 1009.4 |
| 20260510080753 | 3 | 272 | 11.3 | 17.7 | 0.00 | 0.00 | 0.00 | 76 | 1009.2 |
| 20260510080251 | 3 | 267 | 9.7 | 16.1 | 0.00 | 0.00 | 0.00 | 76 | 1009.2 |
| 20260510080016 | 3 | 283 | 9.7 | 16.1 | 0.00 | 0.00 | 0.00 | 76 | 1009.1 |
| 20260510075250 | 3 | 276 | 9.7 | 16.1 | 0.00 | 0.00 | 0.00 | 75 | 1009.0 |
| 20260510074751 | 3 | 259 | 9.7 | 20.9 | 0.00 | 0.00 | 0.00 | 75 | 1009.0 |
| 20260510074248 | 3 | 257 | 9.7 | 20.9 | 0.00 | 0.00 | 0.00 | 75 | 1008.9 |
| 20260510073749 | 3 | 295 | 11.3 | 16.1 | 0.00 | 0.00 | 0.00 | 74 | 1009.0 |
| 20260510073250 | 3 | 254 | 9.7 | 16.1 | 0.00 | 0.00 | 0.00 | 74 | 1008.9 |
| 20260510072750 | 3 | 258 | 9.7 | 14.5 | 0.00 | 0.00 | 0.00 | 74 | 1008.9 |
| 20260510072251 | 3 | 262 | 8.0 | 11.3 | 0.00 | 0.00 | 0.00 | 73 | 1008.8 |
| 20260510072022 | 3 | 245 | 6.4 | 11.3 | 0.00 | 0.00 | 0.00 | 73 | 1008.6 |
| 20260510071250 | 3 | 286 | 8.0 | 16.1 | 0.00 | 0.00 | 0.00 | 73 | 1008.7 |
| 20260510070748 | 3 | 240 | 9.7 | 16.1 | 0.00 | 0.00 | 0.00 | 73 | 1008.7 |
| 20260510070249 | 3 | 254 | 9.7 | 14.5 | 0.00 | 0.00 | 0.00 | 72 | 1008.6 |
| 20260510065749 | 4 | 250 | 8.0 | 14.5 | 0.00 | 0.00 | 0.00 | 72 | 1008.6 |
| 20260510065516 | 4 | 282 | 8.0 | 14.5 | 0.00 | 0.00 | 0.00 | 72 | 1008.5 |
| 20260510064248 | 4 | 276 | 4.8 | 14.5 | 0.00 | 0.00 | 0.00 | 71 | 1008.5 |
| 20260510063749 | 4 | 286 | 8.0 | 14.5 | 0.00 | 0.00 | 0.00 | 70 | 1008.3 |
| 20260510063248 | 4 | 281 | 6.4 | 16.1 | 0.00 | 0.00 | 0.00 | 70 | 1008.3 |
| 20260510062747 | 4 | 292 | 4.8 | 16.1 | 0.00 | 0.00 | 0.00 | 69 | 1008.3 |
| 20260510062512 | 5 | 283 | 6.4 | 16.1 | 0.00 | 0.00 | 0.00 | 68 | 1008.2 |
| 20260510061750 | 5 | 306 | 6.4 | 16.1 | 0.00 | 0.00 | 0.00 | 67 | 1008.2 |
| 20260510060747 | 5 | 341 | 8.0 | 17.7 | 0.00 | 0.00 | 0.00 | 66 | 1008.2 |
| 20260510060248 | 5 | 316 | 9.7 | 24.1 | 0.00 | 0.00 | 0.00 | 65 | 1008.1 |
| 20260510055742 | 5 | 324 | 9.7 | 24.1 | 0.00 | 0.00 | 0.00 | 65 | 1008.1 |
| 20260510055243 | 5 | 324 | 6.4 | 19.3 | 0.00 | 0.00 | 0.00 | 64 | 1008.1 |
| 20260510054742 | 5 | 302 | 6.4 | 24.1 | 0.00 | 0.00 | 0.00 | 63 | 1008.1 |
| 20260510054242 | 5 | 312 | 11.3 | 24.1 | 0.00 | 0.00 | 0.00 | 62 | 1008.0 |
| 20260510054008 | 5 | 344 | 9.7 | 25.7 | 0.00 | 0.00 | 0.00 | 61 | 1007.9 |
| 20260510053505 | 5 | 341 | 11.3 | 25.7 | 0.00 | 0.00 | 0.00 | 61 | 1007.9 |
| 20260510052736 | 5 | 319 | 14.5 | 25.7 | 0.00 | 0.00 | 0.00 | 61 | 1007.8 |
| 20260510052238 | 5 | 299 | 9.7 | 25.7 | 0.00 | 0.00 | 0.00 | 61 | 1007.9 |
| 20260510051735 | 5 | 326 | 6.4 | 33.8 | 0.00 | 0.00 | 0.00 | 61 | 1007.8 |
| 20260510051234 | 5 | 312 | 12.9 | 33.8 | 0.00 | 0.00 | 0.00 | 61 | 1007.7 |
| 20260510050735 | 5 | 329 | 9.7 | 19.3 | 0.00 | 0.00 | 0.00 | 61 | 1007.7 |
| 20260510050501 | 5 | 317 | 9.7 | 27.4 | 0.00 | 0.00 | 0.00 | 62 | 1007.7 |
| 20260510045728 | 5 | 307 | 12.9 | 27.4 | 0.00 | 0.00 | 0.00 | 62 | 1007.6 |
| 20260510045226 | 5 | 310 | 14.5 | 24.1 | 0.00 | 0.00 | 0.00 | 62 | 1007.7 |
| 20260510044727 | 5 | 306 | 8.0 | 24.1 | 0.00 | 0.00 | 0.00 | 62 | 1007.6 |
| 20260510043722 | 5 | 316 | 6.4 | 24.1 | 0.00 | 0.00 | 0.00 | 62 | 1007.5 |
| 20260510043221 | 5 | 326 | 9.7 | 24.1 | 0.00 | 0.00 | 0.00 | 62 | 1007.4 |
| 20260510042720 | 5 | 282 | 12.9 | 24.1 | 0.00 | 0.00 | 0.00 | 62 | 1007.4 |
| 20260510042220 | 5 | 283 | 6.4 | 20.9 | 0.00 | 0.00 | 0.00 | 62 | 1007.4 |
| 20260510041719 | 5 | 296 | 6.4 | 22.5 | 0.00 | 0.00 | 0.00 | 62 | 1007.4 |
| 20260510041221 | 5 | 329 | 6.4 | 25.7 | 0.00 | 0.00 | 0.00 | 62 | 1007.2 |
| 20260510040717 | 5 | 314 | 8.0 | 25.7 | 0.00 | 0.00 | 0.00 | 62 | 1007.1 |
| 20260510040220 | 5 | 49 | 8.0 | 27.4 | 0.00 | 0.00 | 0.00 | 60 | 1007.0 |
| 20260510035711 | 5 | 354 | 14.5 | 30.6 | 0.00 | 0.00 | 0.00 | 61 | 1007.0 |
| 20260510035214 | 5 | 309 | 14.5 | 30.6 | 0.00 | 0.00 | 0.00 | 62 | 1007.0 |
| 20260510034710 | 5 | 348 | 9.7 | 20.9 | 0.00 | 0.00 | 0.00 | 63 | 1007.1 |
| 20260510034211 | 5 | 310 | 9.7 | 22.5 | 0.00 | 0.00 | 0.00 | 65 | 1007.0 |
| 20260510033711 | 5 | 272 | 4.8 | 22.5 | 0.00 | 0.00 | 0.00 | 66 | 1007.1 |
| 20260510033209 | 5 | 296 | 6.4 | 14.5 | 0.00 | 0.00 | 0.00 | 67 | 1007.0 |
| 20260510032708 | 5 | 293 | 3.2 | 11.3 | 0.00 | 0.00 | 0.00 | 67 | 1007.0 |
| 20260510032208 | 6 | 292 | 6.4 | 11.3 | 0.00 | 0.00 | 0.00 | 67 | 1006.9 |
| 20260510031707 | 6 | 289 | 3.2 | 14.5 | 0.00 | 0.00 | 0.00 | 66 | 1006.9 |
| 20260510031206 | 6 | 293 | 6.4 | 14.5 | 0.00 | 0.00 | 0.00 | 66 | 1007.0 |
| 20260510030705 | 6 | 316 | 9.7 | 17.7 | 0.00 | 0.00 | 0.00 | 65 | 1006.9 |
| 20260510030204 | 6 | 329 | 3.2 | 25.7 | 0.00 | 0.00 | 0.00 | 64 | 1006.9 |
| 20260510025704 | 6 | 344 | 6.4 | 25.7 | 0.00 | 0.00 | 0.00 | 64 | 1006.9 |
| 20260510025203 | 6 | 333 | 6.4 | 19.3 | 0.00 | 0.00 | 0.00 | 64 | 1006.9 |
| 20260510024706 | 6 | 305 | 8.0 | 14.5 | 0.00 | 0.00 | 0.00 | 63 | 1006.9 |
| 20260510024206 | 6 | 7 | 4.8 | 11.3 | 0.00 | 0.00 | 0.00 | 63 | 1006.8 |
| 20260510023705 | 6 | 292 | 4.8 | 11.3 | 0.00 | 0.00 | 0.00 | 63 | 1006.8 |
| 20260510023203 | 6 | 289 | 4.8 | 16.1 | 0.00 | 0.00 | 0.00 | 63 | 1006.7 |
| 20260510022703 | 6 | 358 | 6.4 | 17.7 | 0.00 | 0.00 | 0.00 | 63 | 1006.5 |
| 20260510022203 | 6 | 302 | 6.4 | 17.7 | 0.00 | 0.00 | 0.00 | 63 | 1006.5 |
| 20260510021700 | 6 | 333 | 6.4 | 19.3 | 0.00 | 0.00 | 0.00 | 64 | 1006.5 |
| 20260510021159 | 6 | 306 | 6.4 | 19.3 | 0.00 | 0.00 | 0.00 | 65 | 1006.3 |
| 20260510020923 | 6 | 319 | 4.8 | 14.5 | 0.00 | 0.00 | 0.00 | 65 | 1006.2 |
| 20260510020445 | 7 | 299 | 6.4 | 20.9 | 0.00 | 0.00 | 0.00 | 65 | 1006.0 |
| 20260510015633 | 7 | 306 | 9.7 | 20.9 | 0.00 | 0.00 | 0.00 | 65 | 1005.9 |
| 20260510015404 | 7 | 348 | 6.4 | 20.9 | 0.00 | 0.00 | 0.00 | 65 | 1005.8 |
| 20260510014634 | 7 | 323 | 8.0 | 19.3 | 0.00 | 0.00 | 0.00 | 65 | 1005.6 |
| 20260510014133 | 7 | 310 | 6.4 | 29.0 | 0.00 | 0.00 | 0.00 | 64 | 1005.6 |
| 20260510013637 | 7 | 289 | 11.3 | 29.0 | 0.00 | 0.00 | 0.00 | 64 | 1005.5 |
| 20260510013132 | 7 | 283 | 9.7 | 27.4 | 0.00 | 0.00 | 0.00 | 64 | 1005.4 |
| 20260510012633 | 7 | 330 | 12.9 | 27.4 | 0.00 | 0.00 | 0.00 | 64 | 1005.2 |
| 20260510012132 | 7 | 358 | 6.4 | 24.1 | 0.00 | 0.00 | 0.00 | 64 | 1005.1 |
| 20260510011634 | 7 | 343 | 12.9 | 24.1 | 0.00 | 0.00 | 0.00 | 64 | 1005.0 |
| 20260510011135 | 7 | 347 | 8.0 | 20.9 | 0.00 | 0.00 | 0.00 | 65 | 1005.0 |
| 20260510010631 | 7 | 11 | 8.0 | 22.5 | 0.00 | 0.00 | 0.00 | 65 | 1005.0 |
| 20260510010133 | 7 | 300 | 12.9 | 29.0 | 0.00 | 0.00 | 0.00 | 65 | 1004.9 |
| 20260510005553 | 7 | 302 | 9.7 | 29.0 | 0.00 | 0.00 | 0.00 | 65 | 1004.9 |
| 20260510005053 | 7 | 319 | 12.9 | 25.7 | 0.00 | 0.00 | 0.00 | 66 | 1004.8 |
| 20260510004822 | 7 | 326 | 9.7 | 30.6 | 0.00 | 0.00 | 0.00 | 66 | 1004.7 |
| 20260510004054 | 7 | 307 | 12.9 | 30.6 | 0.00 | 0.00 | 0.00 | 66 | 1004.7 |
| 20260510003553 | 7 | 331 | 8.0 | 30.6 | 0.00 | 0.00 | 0.00 | 67 | 1004.4 |
| 20260510003323 | 8 | 317 | 11.3 | 30.6 | 0.00 | 0.00 | 0.00 | 66 | 1004.4 |
| 20260510002554 | 8 | 343 | 12.9 | 24.1 | 0.00 | 0.00 | 0.00 | 66 | 1004.2 |
| 20260510002053 | 8 | 7 | 9.7 | 25.7 | 0.00 | 0.00 | 0.00 | 66 | 1004.0 |
| 20260510001552 | 8 | 348 | 11.3 | 25.7 | 0.00 | 0.00 | 0.00 | 66 | 1003.9 |
| 20260510001052 | 8 | 330 | 12.9 | 25.7 | 0.00 | 0.00 | 0.00 | 65 | 1003.8 |
| 20260510000551 | 8 | 341 | 11.3 | 32.2 | 0.00 | 0.00 | 0.00 | 65 | 1003.5 |
| 20260510000053 | 8 | 337 | 14.5 | 37.0 | 0.00 | 0.00 | 0.00 | 64 | 1003.3 |
| 20260509235738 | 8 | 28 | 11.3 | 37.0 | 0.00 | 0.00 | 0.00 | 65 | 1003.2 |
| 20260509235005 | 8 | 327 | 12.9 | 29.0 | 0.00 | 0.00 | 0.00 | 65 | 1003.1 |
| 20260509234736 | 8 | 314 | 14.5 | 33.8 | 0.00 | 0.00 | 0.00 | 64 | 1003.0 |
| 20260509234005 | 9 | 341 | 11.3 | 33.8 | 0.00 | 0.00 | 0.00 | 62 | 1002.8 |
| 20260509233505 | 9 | 350 | 14.5 | 43.5 | 0.00 | 0.00 | 0.00 | 60 | 1002.5 |
| 20260509233238 | 10 | 330 | 12.9 | 43.5 | 0.00 | 0.00 | 0.00 | 57 | 1002.5 |
| 20260509232505 | 10 | 307 | 14.5 | 29.0 | 0.00 | 0.00 | 0.00 | 54 | 1002.4 |
| 20260509232005 | 10 | 336 | 9.7 | 32.2 | 0.00 | 0.00 | 0.00 | 51 | 1002.3 |
| 20260509231735 | 11 | 2 | 14.5 | 35.4 | 0.00 | 0.00 | 0.00 | 46 | 1002.1 |
| 20260509231009 | 11 | 343 | 9.7 | 35.4 | 0.00 | 0.00 | 0.00 | 43 | 1002.0 |
| 20260509230508 | 11 | 312 | 14.5 | 35.4 | 0.00 | 0.00 | 0.00 | 40 | 1001.9 |
| 20260509230232 | 12 | 351 | 9.7 | 35.4 | 0.00 | 0.00 | 0.00 | 40 | 1001.7 |
| 20260509225459 | 12 | 340 | 11.3 | 38.6 | 0.00 | 0.00 | 0.00 | 39 | 1001.6 |
| 20260509224728 | 12 | 283 | 17.7 | 41.8 | 0.00 | 0.00 | 0.00 | 39 | 1001.3 |
| 20260509223959 | 12 | 331 | 16.1 | 38.6 | 0.00 | 0.00 | 0.00 | 38 | 1001.3 |
| 20260509223458 | 12 | 358 | 14.5 | 30.6 | 0.00 | 0.00 | 0.00 | 37 | 1001.4 |
| 20260509223226 | 12 | 289 | 11.3 | 38.6 | 0.00 | 0.00 | 0.00 | 37 | 1001.0 |
| 20260509222505 | 13 | 306 | 14.5 | 38.6 | 0.00 | 0.00 | 0.00 | 36 | 1001.0 |
| 20260509221955 | 13 | 305 | 11.3 | 35.4 | 0.00 | 0.00 | 0.00 | 37 | 1000.9 |
| 20260509221454 | 12 | 314 | 17.7 | 35.4 | 0.00 | 0.00 | 0.00 | 37 | 1000.8 |
| 20260509220952 | 12 | 312 | 14.5 | 35.4 | 0.00 | 0.00 | 0.00 | 39 | 1000.8 |
| 20260509220721 | 12 | 257 | 19.3 | 35.4 | 0.00 | 0.00 | 0.00 | 39 | 1000.5 |
| 20260509215951 | 12 | 298 | 14.5 | 35.4 | 0.00 | 0.00 | 0.00 | 40 | 1000.4 |
| 20260509215449 | 12 | 4 | 8.0 | 30.6 | 0.00 | 0.00 | 0.00 | 41 | 1000.3 |
| 20260509214446 | 12 | 299 | 12.9 | 27.4 | 0.00 | 0.00 | 0.00 | 40 | 1000.2 |
| 20260509213946 | 12 | 350 | 6.4 | 32.2 | 0.00 | 0.00 | 0.00 | 40 | 1000.1 |
| 20260509212943 | 12 | 327 | 19.3 | 37.0 | 0.00 | 0.00 | 0.00 | 40 | 999.9 |
| 20260509212710 | 13 | 317 | 12.9 | 35.4 | 0.00 | 0.00 | 0.00 | 41 | 999.8 |
| 20260509211942 | 13 | 305 | 14.5 | 41.8 | 0.00 | 0.00 | 0.00 | 41 | 999.6 |
| 20260509211442 | 13 | 312 | 16.1 | 41.8 | 0.00 | 0.00 | 0.00 | 41 | 999.6 |
| 20260509210942 | 14 | 314 | 14.5 | 35.4 | 0.00 | 0.00 | 0.00 | 36 | 999.4 |
| 20260509210441 | 14 | 286 | 11.3 | 30.6 | 0.00 | 0.00 | 0.00 | 35 | 999.3 |
| 20260509205942 | 14 | 324 | 14.5 | 30.6 | 0.00 | 0.00 | 0.00 | 36 | 999.0 |
| 20260509205436 | 13 | 51 | 12.9 | 27.4 | 0.00 | 0.00 | 0.00 | 39 | 999.1 |
| 20260509204934 | 13 | 348 | 12.9 | 33.8 | 0.00 | 0.00 | 0.00 | 40 | 998.9 |
| 20260509204434 | 13 | 327 | 14.5 | 43.5 | 0.00 | 0.00 | 0.00 | 41 | 998.7 |
| 20260509203935 | 12 | 1 | 8.0 | 43.5 | 0.00 | 0.00 | 0.00 | 44 | 998.5 |
| 20260509203436 | 12 | 9 | 16.1 | 33.8 | 0.00 | 0.00 | 0.00 | 43 | 998.5 |
| 20260509203210 | 12 | 24 | 11.3 | 33.8 | 0.00 | 0.00 | 0.00 | 42 | 998.6 |
| 20260509202437 | 12 | 331 | 14.5 | 30.6 | 0.00 | 0.00 | 0.00 | 41 | 998.4 |
| 20260509202204 | 12 | 345 | 12.9 | 29.0 | 0.00 | 0.00 | 0.00 | 41 | 998.4 |
| 20260509201433 | 12 | 1 | 16.1 | 29.0 | 0.00 | 0.00 | 0.00 | 41 | 998.1 |
| 20260509200933 | 13 | 8 | 12.9 | 32.2 | 0.00 | 0.00 | 0.00 | 40 | 997.9 |
| 20260509200433 | 15 | 305 | 12.9 | 33.8 | 0.00 | 0.00 | 0.00 | 37 | 997.8 |
| 20260509195932 | 15 | 330 | 11.3 | 33.8 | 0.00 | 0.00 | 0.00 | 37 | 997.8 |
| 20260509195701 | 15 | 307 | 9.7 | 33.8 | 0.00 | 0.00 | 0.00 | 41 | 997.7 |
| 20260509194934 | 15 | 343 | 12.9 | 33.8 | 0.00 | 0.00 | 0.00 | 45 | 997.5 |
| 20260509194428 | 14 | 8 | 14.5 | 32.2 | 0.00 | 0.00 | 0.00 | 45 | 997.4 |
| 20260509194152 | 15 | 307 | 17.7 | 33.8 | 0.00 | 0.00 | 0.00 | 44 | 997.4 |
| 20260509193422 | 15 | 307 | 16.1 | 33.8 | 0.00 | 0.00 | 0.00 | 43 | 997.2 |
| 20260509192918 | 15 | 254 | 9.7 | 33.8 | 0.00 | 0.00 | 0.00 | 44 | 997.1 |
| 20260509192418 | 16 | 312 | 14.5 | 33.8 | 0.00 | 0.00 | 0.00 | 43 | 997.1 |
| 20260509191921 | 16 | 274 | 17.7 | 30.6 | 0.00 | 0.00 | 0.00 | 45 | 997.0 |
| 20260509190919 | 16 | 324 | 16.1 | 29.0 | 0.00 | 0.00 | 0.00 | 47 | 996.9 |
| 20260509190647 | 15 | 353 | 12.9 | 33.8 | 0.00 | 0.00 | 0.00 | 48 | 996.9 |
| 20260509185916 | 15 | 258 | 17.7 | 33.8 | 0.00 | 0.00 | 0.00 | 46 | 997.0 |
| 20260509185419 | 15 | 278 | 14.5 | 43.5 | 0.00 | 0.00 | 0.00 | 45 | 997.0 |
| 20260509184915 | 15 | 283 | 27.4 | 43.5 | 0.00 | 0.00 | 0.00 | 45 | 996.8 |
| 20260509184649 | 15 | 283 | 22.5 | 43.5 | 0.00 | 0.00 | 0.00 | 46 | 996.8 |
| 20260509183915 | 15 | 271 | 17.7 | 43.5 | 0.00 | 0.00 | 0.00 | 48 | 996.7 |
| 20260509183412 | 15 | 302 | 14.5 | 41.8 | 0.00 | 0.00 | 0.00 | 48 | 996.5 |
| 20260509183144 | 15 | 261 | 12.9 | 30.6 | 0.00 | 0.00 | 0.00 | 49 | 996.3 |
| 20260509182641 | 15 | 293 | 17.7 | 35.4 | 0.00 | 0.00 | 0.00 | 50 | 996.3 |
| 20260509182136 | 15 | 296 | 17.7 | 35.4 | 0.00 | 0.00 | 0.00 | 51 | 996.3 |
| 20260509181410 | 15 | 316 | 12.9 | 35.4 | 0.00 | 0.00 | 0.00 | 55 | 996.2 |
| 20260509180910 | 14 | 272 | 24.1 | 35.4 | 0.00 | 0.00 | 0.00 | 55 | 996.0 |
| 20260509180410 | 13 | 269 | 14.5 | 37.0 | 0.00 | 0.00 | 0.00 | 60 | 995.7 |
| 20260509175407 | 10 | 348 | 6.4 | 17.7 | 0.00 | 0.00 | 0.00 | 75 | 995.5 |
| 20260509175141 | 9 | 357 | 3.2 | 14.5 | 0.00 | 0.00 | 0.00 | 77 | 995.4 |
| 20260509174640 | 9 | 355 | 8.0 | 19.3 | 0.00 | 0.00 | 0.00 | 77 | 995.5 |
| 20260509174135 | 8 | 348 | 9.7 | 19.3 | 0.00 | 0.00 | 0.00 | 78 | 995.4 |
| 20260509173406 | 8 | 350 | 6.4 | 19.3 | 0.00 | 0.00 | 0.00 | 75 | 995.5 |
| 20260509173135 | 8 | 351 | 8.0 | 20.9 | 0.00 | 0.00 | 0.00 | 76 | 995.5 |
| 20260509172407 | 8 | 337 | 6.4 | 20.9 | 0.00 | 0.00 | 0.00 | 75 | 995.4 |
| 20260509172135 | 8 | 337 | 9.7 | 17.7 | 0.00 | 0.00 | 0.00 | 74 | 995.4 |
| 20260509171408 | 9 | 25 | 8.0 | 17.7 | 0.00 | 0.00 | 0.00 | 74 | 995.4 |
| 20260509170906 | 9 | 319 | 8.0 | 16.1 | 0.00 | 0.00 | 0.00 | 73 | 995.4 |
| 20260509170406 | 9 | 316 | 6.4 | 17.7 | 0.00 | 0.00 | 0.00 | 72 | 995.5 |
| 20260509165907 | 10 | 355 | 9.7 | 17.7 | 0.00 | 0.00 | 0.00 | 69 | 995.5 |
| 20260509165404 | 11 | 7 | 9.7 | 17.7 | 0.00 | 0.00 | 0.00 | 66 | 995.5 |
| 20260509164904 | 12 | 338 | 6.4 | 16.1 | 0.00 | 0.00 | 0.00 | 61 | 995.4 |
| 20260509164404 | 14 | 313 | 4.8 | 25.7 | 0.00 | 0.00 | 0.00 | 57 | 995.3 |
| 20260509163904 | 15 | 358 | 9.7 | 29.0 | 0.00 | 0.00 | 0.00 | 62 | 995.3 |
| 20260509163656 | 15 | 231 | 16.1 | 29.0 | 0.00 | 0.00 | 0.00 | 62 | 995.2 |
| 20260509162950 | 15 | 257 | 14.5 | 27.4 | 0.00 | 0.00 | 0.00 | 62 | 995.2 |
| 20260509162404 | 15 | 272 | 16.1 | 29.0 | 0.00 | 0.00 | 0.00 | 62 | 995.0 |
| 20260509161906 | 15 | 255 | 12.9 | 29.0 | 0.00 | 0.00 | 0.00 | 62 | 995.2 |
| 20260509161403 | 15 | 262 | 8.0 | 29.0 | 0.00 | 0.00 | 0.00 | 62 | 995.2 |
| 20260509160925 | 15 | 282 | 11.3 | 20.9 | 0.00 | 0.00 | 0.00 | 63 | 995.2 |
| 20260509160447 | 15 | 240 | 9.7 | 22.5 | 0.00 | 0.00 | 0.00 | 64 | 995.1 |
| 20260509155903 | 15 | 275 | 11.3 | 22.5 | 0.00 | 0.00 | 0.00 | 64 | 995.1 |
| 20260509155402 | 15 | 219 | 6.4 | 19.3 | 0.00 | 0.00 | 0.00 | 65 | 995.1 |
| 20260509154903 | 15 | 231 | 6.4 | 19.3 | 0.00 | 0.00 | 0.00 | 65 | 995.1 |
| 20260509154402 | 15 | 231 | 9.7 | 19.3 | 0.00 | 0.00 | 0.00 | 65 | 995.1 |
| 20260509153859 | 15 | 210 | 9.7 | 24.1 | 0.00 | 0.00 | 0.00 | 65 | 995.1 |
| 20260509153358 | 15 | 224 | 11.3 | 24.1 | 0.00 | 0.00 | 0.00 | 64 | 995.1 |
| 20260509152358 | 15 | 207 | 6.4 | 24.1 | 0.00 | 0.00 | 0.00 | 63 | 995.0 |
| 20260509151857 | 15 | 216 | 17.7 | 24.1 | 0.00 | 0.00 | 0.00 | 64 | 995.1 |
| 20260509151356 | 15 | 233 | 9.7 | 25.7 | 0.00 | 0.00 | 0.00 | 64 | 995.1 |
| 20260509150859 | 15 | 238 | 12.9 | 25.7 | 0.00 | 0.00 | 0.00 | 65 | 995.1 |
| 20260509150355 | 15 | 237 | 6.4 | 19.3 | 0.00 | 0.00 | 0.00 | 65 | 995.0 |
| 20260509145856 | 15 | 228 | 6.4 | 22.5 | 0.00 | 0.00 | 0.00 | 64 | 995.1 |
| 20260509145403 | 15 | 247 | 12.9 | 24.1 | 0.00 | 0.00 | 0.00 | 64 | 995.1 |
| 20260509144852 | 15 | 244 | 9.7 | 29.0 | 0.00 | 0.00 | 0.00 | 63 | 995.2 |
| 20260509144656 | 15 | 213 | 14.5 | 29.0 | 0.00 | 0.00 | 0.00 | 63 | 995.1 |
| 20260509143934 | 15 | 258 | 12.9 | 24.1 | 0.00 | 0.00 | 0.00 | 64 | 995.0 |
| 20260509143353 | 15 | 213 | 11.3 | 24.1 | 0.00 | 0.00 | 0.00 | 64 | 994.9 |
| 20260509142853 | 15 | 200 | 12.9 | 24.1 | 0.00 | 0.00 | 0.00 | 64 | 994.8 |
| 20260509142349 | 15 | 241 | 14.5 | 27.4 | 0.00 | 0.00 | 0.00 | 65 | 994.9 |
| 20260509141848 | 15 | 234 | 12.9 | 27.4 | 0.00 | 0.00 | 0.00 | 66 | 995.1 |
| 20260509141346 | 14 | 236 | 14.5 | 30.6 | 0.00 | 0.00 | 0.00 | 65 | 995.3 |
| 20260509140847 | 15 | 279 | 14.5 | 33.8 | 0.00 | 0.00 | 0.00 | 65 | 995.2 |
| 20260509140346 | 15 | 236 | 19.3 | 33.8 | 0.00 | 0.00 | 0.00 | 64 | 994.8 |
| 20260509135846 | 15 | 185 | 12.9 | 24.1 | 0.00 | 0.00 | 0.00 | 65 | 994.7 |
| 20260509135400 | 15 | 255 | 11.3 | 24.1 | 0.00 | 0.00 | 0.00 | 66 | 994.9 |
| 20260509134845 | 14 | 244 | 12.9 | 24.1 | 0.00 | 0.00 | 0.00 | 67 | 995.0 |
| 20260509134407 | 13 | 158 | 9.7 | 22.5 | 0.00 | 0.00 | 0.00 | 66 | 995.0 |
| 20260509133845 | 13 | 223 | 11.3 | 20.9 | 0.00 | 0.00 | 0.00 | 66 | 995.1 |
| 20260509133343 | 13 | 183 | 9.7 | 25.7 | 0.00 | 0.00 | 0.00 | 65 | 995.1 |
| 20260509132843 | 13 | 233 | 14.5 | 25.7 | 0.00 | 0.00 | 0.00 | 64 | 995.3 |
| 20260509132354 | 13 | 197 | 11.3 | 24.1 | 0.00 | 0.00 | 0.00 | 63 | 995.3 |
| 20260509131842 | 13 | 188 | 12.9 | 30.6 | 0.00 | 0.00 | 0.00 | 62 | 995.3 |
| 20260509131341 | 13 | 217 | 17.7 | 30.6 | 0.00 | 0.00 | 0.00 | 62 | 995.4 |
| 20260509130843 | 12 | 252 | 11.3 | 29.0 | 0.00 | 0.00 | 0.00 | 61 | 995.2 |
| 20260509130342 | 12 | 219 | 9.7 | 27.4 | 0.00 | 0.00 | 0.00 | 60 | 995.4 |
| 20260509125842 | 12 | 204 | 14.5 | 27.4 | 0.00 | 0.00 | 0.00 | 59 | 995.4 |
| 20260509125341 | 12 | 227 | 12.9 | 24.1 | 0.00 | 0.00 | 0.00 | 59 | 995.5 |
| 20260509124841 | 12 | 224 | 11.3 | 24.1 | 0.00 | 0.00 | 0.00 | 58 | 995.6 |
| 20260509124604 | 12 | 220 | 11.3 | 25.7 | 0.00 | 0.00 | 0.00 | 58 | 995.5 |
| 20260509123838 | 11 | 204 | 14.5 | 25.7 | 0.00 | 0.00 | 0.00 | 58 | 995.5 |
| 20260509123335 | 11 | 216 | 12.9 | 27.4 | 0.00 | 0.00 | 0.00 | 57 | 995.6 |
| 20260509122833 | 11 | 241 | 8.0 | 27.4 | 0.00 | 0.00 | 0.00 | 57 | 995.8 |
| 20260509122600 | 11 | 207 | 16.1 | 27.4 | 0.00 | 0.00 | 0.00 | 56 | 995.9 |
| 20260509121833 | 11 | 231 | 11.3 | 24.1 | 0.00 | 0.00 | 0.00 | 56 | 995.9 |
| 20260509121332 | 11 | 214 | 9.7 | 22.5 | 0.00 | 0.00 | 0.00 | 56 | 996.1 |
| 20260509121057 | 11 | 175 | 14.5 | 24.1 | 0.00 | 0.00 | 0.00 | 56 | 996.2 |
| 20260509120331 | 11 | 228 | 14.5 | 24.1 | 0.00 | 0.00 | 0.00 | 55 | 996.2 |
| 20260509120056 | 11 | 214 | 11.3 | 24.1 | 0.00 | 0.00 | 0.00 | 55 | 996.0 |
| 20260509115327 | 11 | 219 | 11.3 | 24.1 | 0.00 | 0.00 | 0.00 | 54 | 996.1 |
| 20260509114824 | 11 | 213 | 12.9 | 22.5 | 0.00 | 0.00 | 0.00 | 54 | 996.1 |
| 20260509114549 | 11 | 154 | 9.7 | 29.0 | 0.00 | 0.00 | 0.00 | 53 | 996.5 |
| 20260509113824 | 11 | 204 | 11.3 | 29.0 | 0.00 | 0.00 | 0.00 | 53 | 996.7 |
| 20260509113324 | 10 | 193 | 11.3 | 25.7 | 0.00 | 0.00 | 0.00 | 53 | 996.7 |
| 20260509112825 | 10 | 190 | 14.5 | 25.7 | 0.00 | 0.00 | 0.00 | 53 | 996.6 |
| 20260509112551 | 10 | 220 | 11.3 | 25.7 | 0.00 | 0.00 | 0.00 | 53 | 996.7 |
| 20260509111824 | 10 | 202 | 14.5 | 24.1 | 0.00 | 0.00 | 0.00 | 52 | 996.7 |
| 20260509111326 | 10 | 213 | 12.9 | 22.5 | 0.00 | 0.00 | 0.00 | 52 | 996.9 |